Location: Dammartin
(48.9032°N, 1.6195°E)
Time: 14:18:35
(UTC+00:00)

YUBILEINY - Pass Details

Date: 14 December 2023
Orbit: 1479 x 1508 km, 82.5° (Epoch: 02 March)

Event Time Altitude Azimuth Distance (km) Brightness Sun altitude
Rises 19:49:36 0° 348° (NNW) 4,624 ? -37.0°
Reaches altitude 10° 19:52:31 10° 345° (NNW) 3,638 ? -37.5°
Maximum altitude 20:01:02 61° 269° (W) 1,655 ? -38.9°
Drops below altitude 10° 20:09:30 10° 191° (SSW) 3,610 ? -40.3°
Sets 20:12:24 0° 188° (S) 4,586 ? -40.7°
